Konstantin Liivak

球探 - FCI Tallinn
20 十一月 2027
星期六
處理

性格

適應力 (2) 野心 (14) 爭議性 (4) 忠誠度 (10) 抗壓 (14) 職業素養 (16) 體育精神 (4) 性情 (12)

個人檔案

執教風格 民主型
教練證照 洲際A級
決心 3
人員管理 3
激勵 2
紀律 3
工作滿意度
100%
疲勞度
0%
職務 球探
薪資 49.7K 每週
合約 14.03.2030

性能

行為 良好
訓練效果
36%
球員發展
40%
傷病預防
45%
戰術執行
40%

近期事件

参加了招募会议 7天前
考察了一名球員 7天前
考察了一名球員 14天前
参加了招募会议 14天前
考察了一名球員 14天前
考察了一名球員 14天前
考察了一名球員 21天前
考察了一名球員 21天前

正在监控

232
球員 俱樂部 狀態 能力 信心 已观察 最后观察 最新投票
Fabricio Rojas Gimnasia y Tiro 活跃 111 / 115 40% 2 18.11.2027 -
Delfor Minervino Estudiantes 活跃 117 / 121 40% 1 18.11.2027 -
Alexandr Lomovitskiy Torpedo-BelAZ 活跃 121 / 105 40% 2 11.11.2027 -
Matías Bergara Nueva Chicago 活跃 115 / 111 40% 1 11.11.2027 -
Martín García Atlanta 活跃 124 / 105 40% 1 04.11.2027 -
Thiago López Almagro 活跃 118 / 115 40% 1 04.11.2027 -
Lucas Angelini Temperley 活跃 104 / 118 40% 1 03.11.2027 -
Santiago Vera Almirante Brown 活跃 106 / 111 40% 1 03.11.2027 -
Enzo González Defensores 活跃 101 / 112 40% 1 01.11.2027 -
Lucas Ríos Atlanta 活跃 114 / 123 40% 2 31.10.2027 -
Vadim Pobudey Torpedo-BelAZ 活跃 101 / 99 40% 1 31.10.2027 -
Augusto Berrondo Tristán Suárez 活跃 105 / 109 40% 2 29.10.2027 -
Evgeniy Shevchenko Slavia Mozyr 活跃 91 / 98 40% 1 29.10.2027 -
Rick Talleres 活跃 112 / 130 40% 2 25.10.2027 -
Dmitriy Khalimonchikov Uni-X Labs 活跃 73 / 78 40% 1 25.10.2027 -
Uladzimir Palitsevich Lokomotiv Gomel 活跃 71 / 77 40% 1 24.10.2027 -
Axel Batista Quilmes 活跃 124 / 124 40% 1 24.10.2027 -
Brian Farioli Estudiantes 活跃 126 / 114 40% 1 20.10.2027 -
Juan Esteban Ávalo Aguilas Doradas 活跃 109 / 122 40% 1 14.10.2027 -
Thiago Calone All Boys 活跃 107 / 120 40% 1 14.10.2027 -
Alexandr Svirepa Isloch 活跃 88 / 88 40% 2 11.10.2027 -
Kirill Kirilenko Dnepr Mogilev 活跃 90 / 89 40% 1 11.10.2027 -
Leonel Monti Racing 活跃 113 / 101 40% 1 09.10.2027 -
Alejo Dramisino Atlanta 活跃 108 / 123 40% 1 09.10.2027 -
Denis Grechikho Dinamo Brest 活跃 110 / 98 40% 1 06.10.2027 -
Gianluca Pugliese Güemes 活跃 108 / 117 40% 1 06.10.2027 -
Michael Liguori Catania 活跃 134 / 123 40% 1 18.08.2027 -
Georgi Tunjov Pro Patria 活跃 117 / 100 40% 1 18.08.2027 -
Liam Henderson Sampdoria 活跃 111 / 119 40% 1 05.08.2027 -
Ahmad Gero Narva Trans 活跃 71 / 80 37% 1 26.07.2027 -
Pasquale Giannotti Trento 活跃 101 / 110 40% 1 26.07.2027 -
Flavio Ciuferri Trapani 活跃 93 / 99 40% 1 26.07.2027 -
Anton Lukashov Slavia Mozyr 活跃 102 / 107 40% 2 20.07.2027 -
Brendan Wiredu Plymouth Argyle 活跃 104 / 117 40% 1 20.07.2027 -
Surkhaikhan Abdullaev KAMAZ 活跃 100 / 102 40% 3 12.07.2027 -
Bekkhan Aliev Sevastopol 活跃 70 / 81 40% 3 12.07.2027 -
Mark Maksimkin Narva Trans 活跃 97 / 72 37% 1 21.06.2027 -
Kirill Malyarov Shinnik 已失去 112 / 97 40% 5 31.05.2027 -
Soltmurad Bakaev Rodina 活跃 121 / 104 40% 2 30.05.2027 -
Giovanni Volpe Audace Cerignola 活跃 84 / 96 40% 1 30.05.2027 -
Kirill Bogdanets Volna 活跃 85 / 101 40% 1 30.05.2027 -
Jacobo Alcalde SKA Khabarovsk 活跃 93 / 93 40% 2 29.05.2027 -
Kane Drummond Oldham Athletic 活跃 112 / 106 40% 2 29.05.2027 -
Myles Kenlock Barnet 活跃 75 / 73 40% 1 26.05.2027 -
Gianluca D'Auria Potenza 活跃 122 / 102 40% 2 25.05.2027 -
Gianluca Contini Siracusa 活跃 94 / 85 40% 1 25.05.2027 -
Maxim Khramtsov Rotor 活跃 79 / 86 40% 2 24.05.2027 -
Danila Shilov Dinamo Stavropol 活跃 106 / 94 40% 4 24.05.2027 -
Nikita Kireev Dinamo Vologda 活跃 77 / 83 40% 2 24.05.2027 -
Edoardo Masciangelo Catania 活跃 133 / 98 40% 2 24.05.2027 -
Kamran Aliev SKA Khabarovsk 活跃 91 / 97 40% 8 23.05.2027 -
Iker Pozo Rodina 活跃 115 / 115 40% 2 23.05.2027 -
Filippo Costa Vicenza 活跃 101 / 133 40% 1 23.05.2027 -
Andrey Mazurin Yenisey 活跃 92 / 93 40% 1 22.05.2027 -
Darko Todorović Fakel 活跃 106 / 112 40% 6 21.05.2027 -
Nader Mohammadi Spartak Kostroma 活跃 91 / 96 40% 3 21.05.2027 -
Michele Emmausso Cosenza 活跃 86 / 120 40% 1 21.05.2027 -
Ruslan Gogniev Dinamo Stavropol 活跃 93 / 75 40% 3 20.05.2027 -
Ilja Agapov Ufa 活跃 126 / 112 40% 3 20.05.2027 -
Guillaume Furrer Lecco 活跃 133 / 105 40% 2 20.05.2027 -
Eduard Valiakhmetov Neftekhimik 活跃 98 / 99 40% 2 19.05.2027 -
Ousmane Ndong Akhmat Grozny 活跃 104 / 104 40% 1 19.05.2027 -
Daniil Penchikov Arsenal Tula 活跃 91 / 112 40% 3 18.05.2027 -
Konstantin Kovalev Volga 活跃 90 / 89 40% 3 18.05.2027 -
Léo Abreu Picerno 活跃 77 / 113 40% 1 18.05.2027 -
Danila Yezhkov Dinamo Vologda 活跃 70 / 86 40% 2 17.05.2027 -
Gevork Sarkisyan Saturn 活跃 83 / 81 40% 1 17.05.2027 -
Dmitry Kuptsov Spartak Tambov 活跃 91 / 73 40% 2 16.05.2027 -
Andrea Mattioli Arzignano 活跃 82 / 111 40% 1 16.05.2027 -
Pavel Maslov Chaika 活跃 92 / 109 40% 2 15.05.2027 -
Marko Bugarin Spartak Kostroma 活跃 95 / 112 40% 2 15.05.2027 -
Jordan Gabriel Port Vale 活跃 94 / 105 40% 1 15.05.2027 -
Alan Tsaraev Arsenal Tula 活跃 103 / 104 40% 3 12.05.2027 -
Danila Yanov Shinnik 活跃 99 / 95 40% 2 12.05.2027 -
Mikhail Gainov Dinamo Stavropol 活跃 79 / 91 40% 1 12.05.2027 -
Said Aliev Rotor 活跃 109 / 86 40% 1 10.05.2027 -
Vasily Cherov Ufa 活跃 95 / 89 40% 3 09.05.2027 -
Alessandro Bellemo Vicenza 活跃 105 / 97 40% 1 09.05.2027 -
Giorgi Kantaria Neftekhimik 活跃 113 / 109 40% 1 09.05.2027 -
Krasian Kolev Chernomorets 活跃 87 / 95 40% 1 07.05.2027 -
Anton Betyuzhnov Dinamo Vologda 活跃 71 / 66 40% 4 05.05.2027 -
Miloš Brnović Arsenal Tula 活跃 125 / 100 40% 2 04.05.2027 -
Vladislav Kamilov Ufa 活跃 99 / 114 40% 1 04.05.2027 -
Ramazan Gadjimuradov Chelyabinsk 活跃 103 / 102 40% 1 03.05.2027 -
Ruslan Baitukov Chelyabinsk 活跃 99 / 99 40% 3 02.05.2027 -
Roman Zaschepkin KAMAZ 活跃 93 / 105 40% 1 02.05.2027 -
Alexey Berdnikov Chelyabinsk 活跃 110 / 101 40% 1 02.05.2027 -
Daniil Agureev Amkar 活跃 91 / 97 40% 4 01.05.2027 -
Edarlyn Reyes Arsenal Tula 活跃 96 / 105 40% 3 01.05.2027 -
Vladislav Agalakov Metallurg 活跃 63 / 81 40% 2 28.04.2027 -
Arseny Prokurorov Salyut 活跃 82 / 71 40% 1 28.04.2027 -
Nicola Dalmonte Trento 活跃 122 / 97 40% 1 27.04.2027 -
Alexandr Novikov Dinamo Bryansk 活跃 75 / 86 40% 2 24.04.2027 -
Oleg Krasilnichenko Volga 活跃 100 / 80 40% 1 24.04.2027 -
Dilan Ortíz Ufa 活跃 92 / 93 40% 1 23.04.2027 -
Sven Karič Nizhniy Novgorod 活跃 111 / 123 40% 3 22.04.2027 -
Ilja Zhigulev Chernomorets 活跃 96 / 106 40% 2 22.04.2027 -
Anton Antonov Chernomorets 活跃 87 / 96 40% 1 22.04.2027 -
Ilnur Badrtdinov Metallurg 活跃 73 / 78 40% 1 22.04.2027 -
Ilja Safronov Rotor 活跃 91 / 90 40% 4 20.04.2027 -
Sam Gale Gillingham 活跃 79 / 102 40% 1 18.04.2027 -
Nikita Pechenkin Sokol 活跃 93 / 91 40% 2 17.04.2027 -
Timur Melekestsev Arsenal Tula 活跃 81 / 88 40% 1 17.04.2027 -
Omar Popov Dinamo St Petersburg 活跃 71 / 67 40% 2 16.04.2027 -
Evgeny Kharin Ural 活跃 111 / 96 40% 2 15.04.2027 -
Nikolay Boyarkin Salyut 活跃 91 / 93 40% 1 15.04.2027 -
Nikolay Giorgobiani Fakel 活跃 119 / 113 40% 1 13.04.2027 -
Jere Vrcić Birkirkara 活跃 83 / 100 40% 2 11.04.2027 -
Garrik Levin Chelyabinsk 活跃 102 / 110 40% 3 09.04.2027 -
Migran Ageyan Ufa 活跃 85 / 84 40% 5 09.04.2027 -
Arseny Vainer Nosta 活跃 69 / 79 40% 1 09.04.2027 -
Kristijan Bistrović Akron 活跃 132 / 112 40% 1 09.04.2027 -
Danil Lipovoy Ufa 活跃 108 / 88 40% 1 08.04.2027 -
Nikita Yershov Kosmos 活跃 96 / 81 40% 1 08.04.2027 -
Artem Sokol Rodina 活跃 106 / 101 40% 1 08.04.2027 -
Marat Tlekhugov Yenisey 活跃 98 / 85 40% 1 06.04.2027 -
Vyacheslav Yakimov Fakel 活跃 120 / 104 40% 1 06.04.2027 -
Abu-Said Eldarushev Rotor 活跃 85 / 108 40% 1 05.04.2027 -
Igor Konovalov Chernomorets 活跃 105 / 90 40% 1 05.04.2027 -
Denis Pokotylo Chelyabinsk 活跃 71 / 79 40% 2 04.04.2027 -
Nikita Pogrebnev Ryazan 活跃 88 / 71 40% 1 03.04.2027 -
Artem Ntumba Rubin Yalta 活跃 85 / 89 40% 2 31.03.2027 -
Aaron Drinan Swindon Town 活跃 114 / 102 40% 1 31.03.2027 -
Youssef Dalouzi Renaissance 活跃 72 / 83 40% 1 30.03.2027 -
Timur Zhamaletdinov Arsenal Tula 活跃 85 / 88 40% 1 29.03.2027 -
Aleksej Golijanin Sokol 活跃 96 / 78 40% 1 28.03.2027 -
Aliou Diakité Real Bamako 活跃 90 / 113 40% 1 26.03.2027 -
Ansor Khabibov Ryazan 活跃 100 / 87 40% 1 26.03.2027 -
Denis Mironov Shinnik 活跃 92 / 100 40% 1 25.03.2027 -
Cheickna Samaké Djoliba 活跃 110 / 99 40% 1 22.03.2027 -
Mikhail Zabotkin Volna 活跃 87 / 89 40% 1 21.03.2027 -
Patrick Schmidt Tarxien Rainbows 活跃 116 / 112 40% 2 20.03.2027 -
Arshak Koryan SKA Khabarovsk 活跃 93 / 94 40% 1 18.03.2027 -
Faruk Gogić Spartak Kostroma 活跃 100 / 99 40% 3 17.03.2027 -
Tigran Avanesyan Arsenal Tula 活跃 100 / 98 40% 1 17.03.2027 -
Nikita Ponomarev Salyut 活跃 74 / 73 40% 2 16.03.2027 -
Magomed Nasibov Pobeda 活跃 85 / 95 40% 1 13.03.2027 -
Ilja Gruznov Khimik 活跃 86 / 94 40% 2 12.03.2027 -
Bulat Gatin Chelyabinsk 活跃 89 / 92 40% 1 12.03.2027 -
Saliou Guindo Real Bamako 活跃 109 / 108 40% 1 09.03.2027 -
Artur Arustamyan KAMAZ 活跃 86 / 91 40% 1 08.03.2027 -
Vladislav Yakovlev Volga 活跃 105 / 96 40% 1 04.03.2027 -
Alexandr Saplinov Volga 活跃 97 / 89 40% 1 03.03.2027 -
David Davidyan Rotor 活跃 89 / 94 40% 2 02.03.2027 -
Eduard Bagrintsev Znamya Truda 活跃 89 / 70 40% 1 28.02.2027 -
Nikolay Tarasov Spartak Kostroma 活跃 91 / 94 40% 2 27.02.2027 -
Ilja Stefanovich Leningradets 活跃 97 / 94 40% 1 23.02.2027 -
Dmitry Savin Metallurg 活跃 67 / 86 40% 1 23.02.2027 -
Alexandr Shlenkin Dinamo Bryansk 活跃 88 / 70 40% 1 21.02.2027 -
Alexandr Ektov Nizhniy Novgorod 活跃 102 / 123 40% 1 20.02.2027 -
Andrey Khityaev Rotor 活跃 104 / 93 40% 5 18.02.2027 -
Nikolay Pokidyshev Rotor 活跃 93 / 111 40% 1 18.02.2027 -
Maxim Kutovoy Salyut 活跃 90 / 80 40% 1 16.02.2027 -
Ilja Azyavin Arsenal Tula 活跃 102 / 84 40% 2 14.02.2027 -
Vladislav Masternoy SKA Khabarovsk 活跃 85 / 88 40% 2 13.02.2027 -
Nichita Moțpan SKA Khabarovsk 活跃 90 / 114 40% 1 08.02.2027 -
Daniil Grigorjev Metallurg 活跃 78 / 95 40% 1 06.02.2027 -
Artur Murza Volga 活跃 78 / 105 40% 1 04.02.2027 -
Joonas Ainsalu Levadia 活跃 65 / 65 37% 1 11.01.2027 -
Denis Yakuba Dinamo Stavropol 活跃 110 / 88 40% 1 07.01.2027 -
Yegor Danilkin Rotor 活跃 99 / 93 40% 1 04.01.2027 -
Ivan Kudryashov Astrakhan 活跃 76 / 86 40% 1 02.01.2027 -
Razhab Magomedov Dinamo Makhachkala 活跃 105 / 94 40% 1 02.01.2027 -
Maxim Vedeneev Metallurg 活跃 74 / 86 40% 1 30.12.2026 -
Rostislav Soldatenko Torpedo Moscow 活跃 94 / 107 40% 2 25.12.2026 -
Nikita Yanovich Tyumen 活跃 78 / 101 40% 1 24.12.2026 -
Oleg Suvorov Mashuk 活跃 96 / 96 40% 1 24.12.2026 -
Alexandr Krikunenko Salyut 活跃 90 / 76 40% 1 22.12.2026 -
Rinat Shakerov Volga 活跃 93 / 104 40% 1 22.12.2026 -
Danila Tretyak Molodechno 活跃 92 / 88 40% 1 22.12.2026 -
Nikita Chagrov Rotor 活跃 111 / 91 40% 3 21.12.2026 -
Daniil Frolkin Shinnik 活跃 114 / 101 40% 1 21.12.2026 -
Semyon Bobrov Saturn 活跃 71 / 64 40% 1 20.12.2026 -
Vladislav Zernaev Salyut 活跃 78 / 89 40% 1 19.12.2026 -
Nikita Pavlov Chaika 活跃 68 / 89 40% 1 19.12.2026 -
Stanislav Magkeev Fakel 活跃 98 / 99 40% 2 15.12.2026 -
Tom Smith Chertanovo 活跃 96 / 75 40% 1 13.12.2026 -
Igor Leschuk Dinamo Moscow 活跃 109 / 127 40% 1 11.12.2026 -
Sergey Volkov Rodina 活跃 112 / 109 40% 1 09.12.2026 -
Oleg Nikolaev Sibir 活跃 97 / 82 40% 2 08.12.2026 -
Artem Isik Dinamo Vologda 活跃 89 / 95 40% 1 07.12.2026 -
David Byazrov Alania 活跃 76 / 91 40% 1 07.12.2026 -
Timur Kraikov Sokol 活跃 85 / 96 40% 1 07.12.2026 -
Andrey Mendel Baltika 活跃 110 / 108 40% 1 01.12.2026 -
Ruslan Fischenko Rodina 活跃 111 / 96 40% 1 29.11.2026 -
Abdula Bagamaev Fakel 活跃 97 / 107 40% 1 29.11.2026 -
Léo Cordeiro Ural 活跃 127 / 106 40% 1 20.11.2026 -
Luka Gagnidze Dinamo Moscow 活跃 123 / 116 40% 2 16.11.2026 -
Yegor Noskov SKA Khabarovsk 活跃 93 / 109 40% 1 15.11.2026 -
Konstantin Kertanov Chelyabinsk 活跃 100 / 99 40% 1 06.11.2026 -
Vladislav Volkov Veles 活跃 80 / 74 40% 1 02.11.2026 -
Artem Bykov Sokol 活跃 87 / 101 40% 1 31.10.2026 -
Dominik Oroz Krylya Sovetov 活跃 103 / 116 40% 1 26.10.2026 -
Ilja Klementjev Textilschik 活跃 82 / 80 40% 1 21.10.2026 -
Kevin Pina Krasnodar 活跃 128 / 130 40% 1 18.10.2026 -
Oleg Isaenko Arsenal Tula 活跃 87 / 89 40% 1 15.10.2026 -
Maxim Nenakhov Lokomotiv Moscow 活跃 131 / 129 40% 1 14.10.2026 -
Islamzhan Nasyrov Ryazan 活跃 91 / 87 40% 1 14.10.2026 -
Kirill Rodionov Vitebsk 活跃 81 / 81 40% 1 09.10.2026 -
Lucas Arce Godoy Cruz 活跃 133 / 111 40% 1 09.10.2026 -
Maxim Ignatjev Rubin 活跃 99 / 92 40% 1 06.10.2026 -
Ruslan Shagiakhmetov Volga 活跃 93 / 99 40% 2 04.10.2026 -
Ilya Rutskiy Torpedo-BelAZ 活跃 100 / 108 40% 1 03.10.2026 -
Nikita Bylinkin Slutsk 活跃 99 / 80 40% 1 03.10.2026 -
Konstantin Nizhegorodov Rubin 活跃 112 / 88 40% 1 02.10.2026 -
Alexandr Dzhigero Slavia Mozyr 活跃 86 / 77 40% 1 02.10.2026 -
Evgeniy Yudchits Isloch 活跃 93 / 108 40% 1 01.10.2026 -
Nikita Korzun Torpedo-BelAZ 活跃 87 / 92 40% 1 01.10.2026 -
Pavel Pashevich Gomel 活跃 106 / 83 40% 1 27.09.2026 -
Abdoul Aziz Touré Dinamo Minsk 活跃 69 / 84 40% 1 25.09.2026 -
Alexandr Osipov Krasnodar 活跃 94 / 110 40% 1 25.09.2026 -
Dmitriy Lisakovich Dnepr Mogilev 活跃 105 / 84 40% 1 22.09.2026 -
Krasimir Kapov Molodechno 活跃 86 / 70 40% 1 22.09.2026 -
Valentin Paltsev Krasnodar 活跃 113 / 101 40% 1 19.09.2026 -
Mohamed Azzi CSKA Moscow 活跃 112 / 115 40% 1 19.09.2026 -
Vitaliy Likhtin Slavia Mozyr 活跃 80 / 86 40% 1 17.09.2026 -
Egor Parkhomenko Dinamo Brest 活跃 110 / 96 40% 1 17.09.2026 -
Maxim Laikin KAMAZ 活跃 89 / 100 40% 1 16.09.2026 -
Kirill Kaplenko BATE 活跃 96 / 104 40% 1 16.09.2026 -
Ruslan Arlouski BATE 活跃 83 / 77 40% 1 15.09.2026 -
Kirill Yelagin Smorgon 活跃 69 / 76 40% 1 15.09.2026 -
Pavel Chikida Slavia Mozyr 活跃 73 / 88 40% 1 13.09.2026 -
Vladislav Grekovich Osipovichi 活跃 61 / 69 40% 1 11.09.2026 -
Viktor Sotnikov Gomel 活跃 104 / 80 40% 1 09.09.2026 -
Stanislav Atrashkevich Molodechno 活跃 86 / 88 40% 1 09.09.2026 -
Nikita Melnikov Slavia Mozyr 活跃 90 / 97 40% 1 07.09.2026 -
Artur Nazarenko Neman 活跃 76 / 97 40% 1 07.09.2026 -
Brent Klavan Tammeka 活跃 33 / 44 37% 1 17.08.2026 -
Jorge Espejo Universidad de Concepcion 活跃 104 / 115 40% 1 10.08.2026 -
Kaimar Saag 活跃 95 / 77 37% 1 03.08.2026 -
Alexey Dayneko Neman 活跃 95 / 98 40% 1 01.08.2026 -
Amine Benchaib Kauno Zalgiris 活跃 121 / 92 40% 1 01.08.2026 -